VIDP

Delhi/Indira Gandhi International (IGI) Airport

Airport
ICAO code
VIDP
IATA Code
DEL
Summary
ICAO Region
APAC
ICAO Territory
Location

Palam, National Capitol Region of Delhi

Serving
New Delhi
Elevation
777 ft
Coordinates
28° 33' 30" N , 77° 5' 38" E
KCC
Airport BS
Bird Strike
Airport LOS
Parallel Runway Operation
Airport WX
Fog
Metar
VIDP 251430Z 03006KT 3000 HZ SCT035 FEW040CB BKN100 36/26 Q0997 TEMPO 25015G25KT 1500 TSRA

International airport serving the city of New Delhi.

Climatology

Humid “subtropical” climate (Köppen climate classification Cwa) - characterized by hot, humid summers and cool winters.

Overnight radiation fog in winter is a well-recognised problem.

SKYbrary Partners:

Safety knowledge contributed by: